,,Stat6,,Stat2,,Stat8,,Stat9,,Stat10,,Wind1,,Wind1,
time,status,PA1M_AVG,status,PR1M_SUM,status,RH1M_AVG,status,SR1M_AVG,status,TA1M_AVG,status,W1dAve1m,status,W1sAve1m,
2003-10-12, 00:00:01,VALID,918.776,VALID,0,VALID,99.2627,VALID,0.0849042,VALID,18.9478,VALID,7,VALID,0.414263,
2003-10-12, 00:01:01,VALID,918.762,VALID,0,VALID,99.2945,VALID,0.0679233,VALID,18.9577,VALID,7,VALID,0.379687,
2003-10-12, 00:02:01,VALID,918.757,VALID,0,VALID,99.3212,VALID,0.0509425,VALID,18.9743,VALID,7,VALID,0.405342,
2003-10-12, 00:03:01,VALID,918.733,VALID,0,VALID,99.3505,VALID,0.0509425,VALID,18.9743,VALID,7,VALID,0.44215,
2003-10-12, 00:04:01,VALID,918.725,VALID,0,VALID,99.3721,VALID,0,VALID,18.9808,VALID,13,VALID,0.628005,
2003-10-12, 00:05:01,VALID,918.688,VALID,0,VALID,99.3377,VALID,0,VALID,18.9775,VALID,14,VALID,0.666548,
2003-10-12, 00:06:01,VALID,918.692,VALID,0,VALID,99.3479,VALID,0,VALID,18.9713,VALID,18,VALID,0.80923,
2003-10-12, 00:07:01,VALID,918.669,VALID,0,VALID,99.3772,VALID,0,VALID,18.9681,VALID,11,VALID,0.649182,
2003-10-12, 00:08:01,VALID,918.655,VALID,0,VALID,99.3886,VALID,0,VALID,18.9582,VALID,18,VALID,0.905649,
2003-10-12, 00:09:01,VALID,918.641,VALID,0,VALID,99.4115,VALID,0,VALID,18.9745,VALID,19,VALID,0.853277,
2003-10-12, 00:10:01,VALID,918.644,VALID,0,VALID,99.4496,VALID,-0.0169808,VALID,18.9909,VALID,14,VALID,0.554506,
2003-10-12, 00:11:01,VALID,918.627,VALID,0,VALID,99.4471,VALID,0,VALID,18.9741,VALID,16,VALID,0.417188,
2003-10-12, 00:12:01,VALID,918.616,VALID,0,VALID,99.4484,VALID,0,VALID,18.984,VALID,16,VALID,0.454723,
2003-10-12, 00:13:01,VALID,918.603,VALID,0,VALID,99.4776,VALID,0,VALID,19.0006,VALID,16,VALID,0.636719,
2003-10-12, 00:14:01,VALID,918.598,VALID,0,VALID,99.47,VALID,0,VALID,18.9971,VALID,16,VALID,0.389509,
2003-10-12, 00:15:01,VALID,918.574,VALID,0,VALID,99.3759,VALID,0,VALID,18.9907,VALID,13,VALID,0.33457,
2003-10-12, 00:16:01,VALID,918.574,VALID,0,VALID,99.3327,VALID,0,VALID,18.9849,VALID,19,VALID,0.799893,
2003-10-12, 00:17:00,VALID,918.558,VALID,0,VALID,99.4051,VALID,0,VALID,18.981,VALID,21,VALID,0.355923,
2003-10-12, 00:18:00,VALID,918.545,VALID,0,VALID,99.4293,VALID,-0.0169808,VALID,19.0038,VALID,19,VALID,0.507227,
2003-10-12, 00:19:00,VALID,918.526,VALID,0,VALID,99.4522,VALID,0,VALID,19.0068,VALID,13,VALID,0.372337,
2003-10-12, 00:20:00,VALID,918.526,VALID,0,VALID,99.4166,VALID,-0.0169808,VALID,19.0202,VALID,2,VALID,0.538867,
2003-10-12, 00:21:00,VALID,918.514,VALID,0,VALID,99.4001,VALID,0,VALID,19.0004,VALID,21,VALID,0.525781,
2003-10-12, 00:22:00,VALID,918.495,VALID,0,VALID,99.4535,VALID,0,VALID,19.0193,VALID,21,VALID,0.258413,
2003-10-12, 00:23:00,VALID,918.492,VALID,0,VALID,99.4408,VALID,0,VALID,19.0299,VALID,10,VALID,0.0605945,
2003-10-12, 00:24:00,VALID,918.464,VALID,0,VALID,99.4179,VALID,-0.0169808,VALID,19.0165,VALID,10,VALID,0.346657,
2003-10-12, 00:25:00,VALID,918.45,VALID,0,VALID,99.3937,VALID,0,VALID,19.0068,VALID,12,VALID,0.683308,
2003-10-12, 00:26:00,VALID,918.435,VALID,0,VALID,99.442,VALID,-0.0679233,VALID,19.0267,VALID,13,VALID,0.591082,
2003-10-12, 00:27:00,VALID,918.408,VALID,0,VALID,99.5031,VALID,-0.0509425,VALID,19.0361,VALID,13,VALID,0.388765,
2003-10-12, 00:28:00,VALID,918.397,VALID,0,VALID,99.559,VALID,0,VALID,19.0756,VALID,14,VALID,0.256214,
2003-10-12, 00:29:00,VALID,918.377,VALID,0,VALID,99.5921,VALID,-0.0169808,VALID,19.0883,VALID,17,VALID,0.114955,
2003-10-12, 00:30:00,VALID,918.349,VALID,0,VALID,99.5959,VALID,-0.0169808,VALID,19.0943,VALID,17,VALID,0.0182292,
2003-10-12, 00:31:00,VALID,918.328,VALID,0,VALID,99.5628,VALID,0,VALID,19.0943,VALID,17,VALID,0.259448,
2003-10-12, 00:32:00,VALID,918.307,VALID,0,VALID,99.5463,VALID,-0.0169808,VALID,19.0876,VALID,18,VALID,0.937128,
2003-10-12, 00:33:00,VALID,918.288,VALID,0,VALID,99.5488,VALID,0,VALID,19.0876,VALID,12,VALID,1.31374,
2003-10-12, 00:34:00,VALID,918.269,VALID,0,VALID,99.5692,VALID,0.0169808,VALID,19.1042,VALID,42,VALID,1.0162,
2003-10-12, 00:35:00,VALID,918.272,VALID,0,VALID,99.6086,VALID,0,VALID,19.1005,VALID,30,VALID,1.31269,
2003-10-12, 00:36:00,VALID,918.265,VALID,0,VALID,99.69,VALID,-0.0169808,VALID,19.1236,VALID,38,VALID,0.562872,
2003-10-12, 00:37:00,VALID,918.25,VALID,0,VALID,99.718,VALID,-0.0339617,VALID,19.1333,VALID,56,VALID,0.617578,
2003-10-12, 00:38:00,VALID,918.254,VALID,0,VALID,99.7116,VALID,-0.0169808,VALID,19.1291,VALID,30,VALID,0.779916,
2003-10-12, 00:39:00,VALID,918.252,VALID,0,VALID,99.723,VALID,0,VALID,19.1325,VALID,22,VALID,0.384233,
2003-10-12, 00:40:00,VALID,918.261,VALID,0,VALID,99.751,VALID,0,VALID,19.1427,VALID,15,VALID,1.00818,
2003-10-12, 00:41:00,VALID,918.243,VALID,0,VALID,99.69,VALID,0,VALID,19.1296,VALID,10,VALID,1.24085,
2003-10-12, 00:42:00,VALID,918.249,VALID,0,VALID,99.6913,VALID,-0.0169808,VALID,19.1136,VALID,359,VALID,0.483789,
2003-10-12, 00:43:00,VALID,918.225,VALID,0,VALID,99.7434,VALID,-0.0339617,VALID,19.1107,VALID,17,VALID,0.761347,
2003-10-12, 00:44:00,VALID,918.214,VALID,0,VALID,99.7841,VALID,-0.0169808,VALID,19.1199,VALID,34,VALID,0.392708,
2003-10-12, 00:45:00,VALID,918.182,VALID,0,VALID,99.807,VALID,0.0169808,VALID,19.1191,VALID,36,VALID,0.733487,
2003-10-12, 00:46:00,VALID,918.156,VALID,0,VALID,99.8159,VALID,0,VALID,19.1261,VALID,31,VALID,1.20226,
2003-10-12, 00:47:00,VALID,918.156,VALID,0,VALID,99.8248,VALID,0,VALID,19.1032,VALID,24,VALID,1.18623,
2003-10-12, 00:48:00,VALID,918.147,VALID,0,VALID,99.8706,VALID,0,VALID,19.1201,VALID,34,VALID,0.381454,
2003-10-12, 00:49:00,VALID,918.14,VALID,0,VALID,99.9112,VALID,-0.101885,VALID,19.1275,VALID,26,VALID,0.613376,
2003-10-12, 00:50:00,VALID,918.132,VALID,0,VALID,99.9201,VALID,-0.118866,VALID,19.1469,VALID,48,VALID,0.458274,
2003-10-12, 00:51:00,VALID,918.14,VALID,0,VALID,99.9214,VALID,-0.101885,VALID,19.1211,VALID,11,VALID,0.784299,
2003-10-12, 00:52:00,VALID,918.143,VALID,0,VALID,99.9405,VALID,-0.0849042,VALID,19.1211,VALID,21,VALID,0.485491,
2003-10-12, 00:53:00,VALID,918.15,VALID,0,VALID,99.9481,VALID,-0.101885,VALID,19.1241,VALID,24,VALID,0.401526,
2003-10-12, 00:54:00,VALID,918.155,VALID,0,VALID,99.9735,VALID,-0.101885,VALID,19.1241,VALID,287,VALID,0.0554497,
2003-10-12, 00:55:00,VALID,918.159,VALID,0,VALID,99.9825,VALID,-0.118866,VALID,19.1208,VALID,322,VALID,0.64375,
2003-10-12, 00:56:00,VALID,918.146,VALID,0,VALID,99.9774,VALID,-0.118866,VALID,19.1144,VALID,9,VALID,0.961739,
2003-10-12, 00:57:00,VALID,918.151,VALID,0,VALID,99.9733,VALID,-0.101885,VALID,19.1116,VALID,35,VALID,0.385045,
2003-10-12, 00:58:00,VALID,918.148,VALID,0,VALID,99.9443,VALID,-0.101885,VALID,19.0729,VALID,23,VALID,0.804487,
2003-10-12, 00:59:00,VALID,918.158,VALID,0,VALID,99.9608,VALID,-0.101885,VALID,19.0528,VALID,12,VALID,0.289757,
2003-10-12, 01:00:00,VALID,918.142,VALID,0,VALID,99.9847,VALID,-0.101885,VALID,19.0664,VALID,111,VALID,0.509909,
2003-10-12, 01:01:00,VALID,918.145,VALID,0,VALID,99.998,VALID,-0.101885,VALID,19.0537,VALID,106,VALID,0.366461,
2003-10-12, 01:02:00,VALID,918.137,VALID,0,VALID,99.9873,VALID,-0.101885,VALID,19.0306,VALID,36,VALID,0.444754,
2003-10-12, 01:03:00,VALID,918.139,VALID,0,VALID,99.9967,VALID,-0.101885,VALID,19.0209,VALID,13,VALID,0.563953,
2003-10-12, 01:04:00,VALID,918.134,VALID,0,VALID,99.999,VALID,-0.0849042,VALID,19.0142,VALID,19,VALID,0.436942,
2003-10-12, 01:05:00,VALID,918.156,VALID,0,VALID,100,VALID,-0.101885,VALID,19.0207,VALID,23,VALID,0.477307,
2003-10-12, 01:06:00,VALID,918.148,VALID,0.2,VALID,100,VALID,-0.0509425,VALID,19.0202,VALID,35,VALID,0.482851,
2003-10-12, 01:07:00,VALID,918.141,VALID,0,VALID,100,VALID,-0.0679233,VALID,19.0242,VALID,333,VALID,0.436111,
2003-10-12, 01:08:00,VALID,918.127,VALID,0,VALID,100,VALID,-0.0339617,VALID,19.014,VALID,332,VALID,0.587936,
2003-10-12, 01:09:00,VALID,918.124,VALID,0,VALID,100,VALID,-0.101885,VALID,19.0113,VALID,29,VALID,0.572443,
2003-10-12, 01:10:00,VALID,918.133,VALID,0,VALID,100,VALID,-0.0339617,VALID,19.008,VALID,188,VALID,0.841146,
2003-10-12, 01:11:00,VALID,918.124,VALID,0,VALID,100,VALID,-0.0849042,VALID,18.9753,VALID,198,VALID,0.612165,
2003-10-12, 01:12:00,VALID,918.125,VALID,0.2,VALID,100,VALID,-0.0679233,VALID,18.9824,VALID,157,VALID,0.15997,
2003-10-12, 01:13:00,VALID,918.116,VALID,0,VALID,100,VALID,-0.101885,VALID,18.979,VALID,94,VALID,0.284489,
2003-10-12, 01:14:00,VALID,918.1,VALID,0,VALID,100,VALID,-0.0509425,VALID,18.9787,VALID,35,VALID,0.546875,
2003-10-12, 01:15:00,VALID,918.095,VALID,0,VALID,100,VALID,-0.101885,VALID,18.9946,VALID,33,VALID,0.582508,
2003-10-12, 01:16:00,VALID,918.096,VALID,0,VALID,100,VALID,-0.0679233,VALID,18.982,VALID,215,VALID,0.21766,
2003-10-12, 01:17:00,VALID,918.091,VALID,0,VALID,100,VALID,-0.0339617,VALID,18.9656,VALID,223,VALID,0.410069,
2003-10-12, 01:18:00,VALID,918.087,VALID,0,VALID,100,VALID,-0.0679233,VALID,18.9593,VALID,325,VALID,0.54415,
2003-10-12, 01:19:00,VALID,918.081,VALID,0,VALID,100,VALID,-0.0339617,VALID,18.9753,VALID,54,VALID,0.248242,
2003-10-12, 01:20:00,VALID,918.066,VALID,0.2,VALID,100,VALID,-0.0169808,VALID,18.9715,VALID,70,VALID,0.43532,
2003-10-12, 01:21:00,VALID,918.069,VALID,0,VALID,100,VALID,-0.0509425,VALID,18.9586,VALID,141,VALID,0.249467,
2003-10-12, 01:22:00,VALID,918.039,VALID,0,VALID,100,VALID,-0.0679233,VALID,18.9524,VALID,38,VALID,0.861421,
2003-10-12, 01:23:00,VALID,918.02,VALID,0,VALID,100,VALID,-0.0339617,VALID,18.9785,VALID,5,VALID,0.570313,
2003-10-12, 01:24:00,VALID,918.007,VALID,0,VALID,100,VALID,-0.0679233,VALID,18.9882,VALID,322,VALID,0.596475,
2003-10-12, 01:25:00,VALID,918.007,VALID,0,VALID,100,VALID,-0.0679233,VALID,18.9914,VALID,38,VALID,0.147852,
2003-10-12, 01:26:00,VALID,917.983,VALID,0,VALID,100,VALID,-0.0509425,VALID,19.0142,VALID,88,VALID,0.255078,
2003-10-12, 01:27:00,VALID,917.958,VALID,0,VALID,100,VALID,-0.101885,VALID,19.008,VALID,60,VALID,0.845139,
2003-10-12, 01:28:00,VALID,917.938,VALID,0,VALID,100,VALID,-0.0509425,VALID,18.9785,VALID,20,VALID,1.19586,
2003-10-12, 01:29:00,VALID,917.918,VALID,0,VALID,100,VALID,-0.101885,VALID,18.9753,VALID,12,VALID,1.18785,
2003-10-12, 01:30:00,VALID,917.908,VALID,0,VALID,100,VALID,-0.101885,VALID,18.9884,VALID,44,VALID,0.846227,
2003-10-12, 01:31:00,VALID,917.887,VALID,0,VALID,100,VALID,-0.0509425,VALID,18.9787,VALID,11,VALID,0.813262,
2003-10-12, 01:32:00,VALID,917.878,VALID,0,VALID,100,VALID,-0.0849042,VALID,18.9559,VALID,24,VALID,0.367001,
2003-10-12, 01:33:00,VALID,917.857,VALID,0,VALID,100,VALID,-0.0509425,VALID,18.9561,VALID,29,VALID,0.71005,
2003-10-12, 01:34:00,VALID,917.868,VALID,0,VALID,100,VALID,-0.0679233,VALID,18.9526,VALID,339,VALID,0.622768,
2003-10-12, 01:35:00,VALID,917.851,VALID,0,VALID,100,VALID,-0.0509425,VALID,18.94,VALID,34,VALID,1.27362,
2003-10-12, 01:36:00,VALID,917.865,VALID,0.2,VALID,100,VALID,-0.0679233,VALID,18.9432,VALID,18,VALID,1.1637,
2003-10-12, 01:37:00,VALID,917.872,VALID,0,VALID,100,VALID,-0.0849042,VALID,18.9268,VALID,4,VALID,0.793341,
2003-10-12, 01:38:00,VALID,917.867,VALID,0,VALID,100,VALID,-0.0339617,VALID,18.9335,VALID,25,VALID,0.764844,
2003-10-12, 01:39:00,VALID,917.879,VALID,0,VALID,100,VALID,-0.0169808,VALID,18.93,VALID,122,VALID,0.55,
2003-10-12, 01:40:00,VALID,917.867,VALID,0,VALID,100,VALID,-0.0509425,VALID,18.9236,VALID,51,VALID,1.06632,
2003-10-12, 01:41:00,VALID,917.867,VALID,0,VALID,100,VALID,-0.0509425,VALID,18.9268,VALID,21,VALID,1.36166,
2003-10-12, 01:42:00,VALID,917.859,VALID,0,VALID,100,VALID,-0.0679233,VALID,18.9303,VALID,10,VALID,0.454033,
2003-10-12, 01:43:00,VALID,917.848,VALID,0,VALID,100,VALID,-0.0679233,VALID,18.9271,VALID,11,VALID,1.05131,
2003-10-12, 01:44:00,VALID,917.83,VALID,0,VALID,100,VALID,-0.0679233,VALID,18.9271,VALID,24,VALID,1.24295,
2003-10-12, 01:45:00,VALID,917.809,VALID,0,VALID,100,VALID,-0.0339617,VALID,18.9298,VALID,22,VALID,1.31974,
2003-10-12, 01:46:00,VALID,917.819,VALID,0,VALID,100,VALID,-0.0339617,VALID,18.9367,VALID,19,VALID,0.977865,
2003-10-12, 01:47:00,VALID,917.805,VALID,0,VALID,100,VALID,-0.0169808,VALID,18.9404,VALID,20,VALID,1.11007,
2003-10-12, 01:48:00,VALID,917.791,VALID,0,VALID,100,VALID,-0.0679233,VALID,18.9434,VALID,17,VALID,1.25527,
2003-10-12, 01:49:00,VALID,917.789,VALID,0.2,VALID,100,VALID,-0.101885,VALID,18.9268,VALID,17,VALID,0.785156,
2003-10-12, 01:50:00,VALID,917.772,VALID,0,VALID,100,VALID,-0.0509425,VALID,18.9305,VALID,3,VALID,0.580221,
2003-10-12, 01:51:00,VALID,917.755,VALID,0,VALID,100,VALID,-0.0169808,VALID,18.901,VALID,1,VALID,0.657848,
2003-10-12, 01:52:00,VALID,917.75,VALID,0,VALID,100,VALID,-0.0509425,VALID,18.8977,VALID,14,VALID,0.963672,
2003-10-12, 01:53:00,VALID,917.748,VALID,0,VALID,100,VALID,-0.0849042,VALID,18.8913,VALID,22,VALID,0.734908,
2003-10-12, 01:54:00,VALID,917.723,VALID,0,VALID,100,VALID,-0.0169808,VALID,18.9012,VALID,22,VALID,1.26542,
2003-10-12, 01:55:00,VALID,917.726,VALID,0,VALID,100,VALID,-0.0169808,VALID,18.8848,VALID,19,VALID,1.13063,
2003-10-12, 01:56:00,VALID,917.711,VALID,0,VALID,100,VALID,-0.0679233,VALID,18.8692,VALID,12,VALID,1.28797,
2003-10-12, 01:57:00,VALID,917.689,VALID,0,VALID,100,VALID,-0.0339617,VALID,18.8436,VALID,19,VALID,1.45508,
2003-10-12, 01:58:00,VALID,917.685,VALID,0,VALID,100,VALID,-0.0849042,VALID,18.8244,VALID,18,VALID,0.940225,
2003-10-12, 01:59:00,VALID,917.672,VALID,0,VALID,100,VALID,-0.0509425,VALID,18.8341,VALID,19,VALID,0.693359,
2003-10-12, 02:00:00,VALID,917.665,VALID,0,VALID,100,VALID,-0.0509425,VALID,18.8438,VALID,359,VALID,0.465701,
2003-10-12, 02:01:00,VALID,917.649,VALID,0,VALID,100,VALID,-0.0679233,VALID,18.8336,VALID,4,VALID,0.714286,
2003-10-12, 02:02:00,VALID,917.647,VALID,0,VALID,100,VALID,-0.0679233,VALID,18.8336,VALID,14,VALID,0.495094,
2003-10-12, 02:03:00,VALID,917.645,VALID,0,VALID,100,VALID,-0.0679233,VALID,18.8366,VALID,293,VALID,0.562855,
2003-10-12, 02:04:00,VALID,917.624,VALID,0,VALID,100,VALID,-0.101885,VALID,18.8339,VALID,204,VALID,0.439303,
2003-10-12, 02:05:00,VALID,917.617,VALID,0,VALID,100,VALID,-0.101885,VALID,18.7949,VALID,37,VALID,0.581209,
2003-10-12, 02:06:00,VALID,917.605,VALID,0,VALID,100,VALID,-0.0679233,VALID,18.7986,VALID,20,VALID,0.708576,
2003-10-12, 02:07:00,VALID,917.605,VALID,0,VALID,100,VALID,-0.0849042,VALID,18.7847,VALID,51,VALID,0.181323,
2003-10-12, 02:08:00,VALID,917.599,VALID,0,VALID,100,VALID,-0.0509425,VALID,18.7914,VALID,340,VALID,0.665396,
2003-10-12, 02:09:00,VALID,917.603,VALID,0,VALID,100,VALID,-0.0509425,VALID,18.772,VALID,15,VALID,0.990141,
2003-10-12, 02:10:00,VALID,917.614,VALID,0,VALID,100,VALID,-0.0849042,VALID,18.7785,VALID,46,VALID,0.637074,
2003-10-12, 02:11:00,VALID,917.605,VALID,0,VALID,100,VALID,-0.0849042,VALID,18.7981,VALID,38,VALID,0.326527,
2003-10-12, 02:12:00,VALID,917.607,VALID,0,VALID,100,VALID,-0.101885,VALID,18.8016,VALID,26,VALID,0.577237,
2003-10-12, 02:13:00,VALID,917.588,VALID,0,VALID,100,VALID,-0.118866,VALID,18.7976,VALID,36,VALID,0.369141,
2003-10-12, 02:14:00,VALID,917.596,VALID,0,VALID,100,VALID,-0.0679233,VALID,18.772,VALID,7,VALID,0.67223,
2003-10-12, 02:15:00,VALID,917.58,VALID,0,VALID,100,VALID,-0.0849042,VALID,18.7658,VALID,9,VALID,0.838281,
2003-10-12, 02:16:00,VALID,917.564,VALID,0,VALID,100,VALID,-0.101885,VALID,18.7365,VALID,23,VALID,0.850195,
2003-10-12, 02:17:00,VALID,917.565,VALID,0,VALID,100,VALID,-0.0679233,VALID,18.7368,VALID,12,VALID,0.879006,
2003-10-12, 02:18:00,VALID,917.538,VALID,0,VALID,100,VALID,-0.0339617,VALID,18.7365,VALID,21,VALID,1.03348,
2003-10-12, 02:19:00,VALID,917.525,VALID,0,VALID,100,VALID,0.0339617,VALID,18.7351,VALID,27,VALID,1.05208,
2003-10-12, 02:20:00,VALID,917.5,VALID,0,VALID,100,VALID,0.0679233,VALID,18.7542,VALID,22,VALID,1.27592,
2003-10-12, 02:21:00,VALID,917.488,VALID,0,VALID,100,VALID,0.0679233,VALID,18.7512,VALID,22,VALID,1.52344,
2003-10-12, 02:22:00,VALID,917.468,VALID,0,VALID,100,VALID,0.0339617,VALID,18.7609,VALID,24,VALID,1.42656,
2003-10-12, 02:23:00,VALID,917.461,VALID,0,VALID,100,VALID,0.0339617,VALID,18.751,VALID,14,VALID,1.1944,
2003-10-12, 02:24:00,VALID,917.447,VALID,0.2,VALID,100,VALID,0.0169808,VALID,18.7485,VALID,20,VALID,1.54251,
2003-10-12, 02:25:00,VALID,917.438,VALID,0,VALID,100,VALID,0.0339617,VALID,18.7517,VALID,14,VALID,1.09141,
2003-10-12, 02:26:00,VALID,917.441,VALID,0,VALID,100,VALID,0.0169808,VALID,18.7453,VALID,19,VALID,1.31771,
2003-10-12, 02:27:00,VALID,917.444,VALID,0.2,VALID,100,VALID,0,VALID,18.7319,VALID,18,VALID,0.821733,
2003-10-12, 02:28:00,VALID,917.439,VALID,0,VALID,100,VALID,0.0339617,VALID,18.7257,VALID,21,VALID,1.35556,
2003-10-12, 02:29:00,VALID,917.437,VALID,0,VALID,100,VALID,0,VALID,18.7162,VALID,25,VALID,1.04859,
2003-10-12, 02:30:00,VALID,917.436,VALID,0,VALID,100,VALID,0,VALID,18.7291,VALID,25,VALID,1.21836,
2003-10-12, 02:31:00,VALID,917.443,VALID,0,VALID,100,VALID,0,VALID,18.7423,VALID,21,VALID,0.907138,
2003-10-12, 02:32:00,VALID,917.419,VALID,0,VALID,100,VALID,0,VALID,18.7485,VALID,21,VALID,0.449041,
2003-10-12, 02:33:00,VALID,917.42,VALID,0,VALID,100,VALID,0,VALID,18.7224,VALID,18,VALID,0.533975,
2003-10-12, 02:34:00,VALID,917.405,VALID,0.2,VALID,100,VALID,0,VALID,18.6804,VALID,346,VALID,0.474382,
2003-10-12, 02:35:00,VALID,917.384,VALID,0,VALID,100,VALID,0,VALID,18.6581,VALID,357,VALID,0.80506,
2003-10-12, 02:36:00,VALID,917.37,VALID,0,VALID,100,VALID,0.0169808,VALID,18.6223,VALID,356,VALID,0.867898,
2003-10-12, 02:37:00,VALID,917.378,VALID,0.2,VALID,100,VALID,0.0339617,VALID,18.6318,VALID,8,VALID,1.04745,
2003-10-12, 02:38:00,VALID,917.371,VALID,0,VALID,100,VALID,0.0339617,VALID,18.6484,VALID,18,VALID,1.01508,
2003-10-12, 02:39:00,VALID,917.376,VALID,0,VALID,100,VALID,0,VALID,18.6509,VALID,22,VALID,0.78766,
2003-10-12, 02:40:00,VALID,917.367,VALID,0.2,VALID,100,VALID,0.0509425,VALID,18.674,VALID,20,VALID,0.630327,
2003-10-12, 02:41:00,VALID,917.355,VALID,0.2,VALID,100,VALID,0.0509425,VALID,18.6705,VALID,20,VALID,0.786204,
2003-10-12, 02:42:00,VALID,917.325,VALID,0,VALID,100,VALID,0,VALID,18.6904,VALID,23,VALID,0.490371,
2003-10-12, 02:43:00,VALID,917.323,VALID,0.2,VALID,100,VALID,0.0339617,VALID,18.706,VALID,25,VALID,0.675409,
2003-10-12, 02:44:00,VALID,917.314,VALID,0,VALID,100,VALID,0,VALID,18.7162,VALID,16,VALID,0.768999,
2003-10-12, 02:45:00,VALID,917.317,VALID,0.2,VALID,100,VALID,0.0169808,VALID,18.7229,VALID,18,VALID,0.318859,
2003-10-12, 02:46:00,VALID,917.3,VALID,0,VALID,100,VALID,0.0339617,VALID,18.7229,VALID,23,VALID,0.498476,
2003-10-12, 02:47:00,VALID,917.315,VALID,0,VALID,100,VALID,0.0679233,VALID,18.6964,VALID,7,VALID,0.483285,
2003-10-12, 02:48:00,VALID,917.305,VALID,0,VALID,100,VALID,0.0339617,VALID,18.6841,VALID,351,VALID,0.477805,
2003-10-12, 02:49:00,VALID,917.309,VALID,0,VALID,100,VALID,-0.0849042,VALID,18.6719,VALID,7,VALID,0.615412,
2003-10-12, 02:50:00,VALID,917.327,VALID,0.2,VALID,100,VALID,-0.0849042,VALID,18.6724,VALID,17,VALID,1.00037,
2003-10-12, 02:51:00,VALID,917.326,VALID,0,VALID,100,VALID,-0.0849042,VALID,18.6528,VALID,16,VALID,0.13186,
2003-10-12, 02:52:00,VALID,917.323,VALID,0,VALID,100,VALID,-0.0509425,VALID,18.6431,VALID,16,VALID,0.493902,
2003-10-12, 02:53:00,VALID,917.31,VALID,0,VALID,100,VALID,-0.0509425,VALID,18.6203,VALID,5,VALID,0.942827,
2003-10-12, 02:54:00,VALID,917.312,VALID,0,VALID,100,VALID,-0.101885,VALID,18.624,VALID,23,VALID,0.69407,
2003-10-12, 02:55:00,VALID,917.303,VALID,0.2,VALID,100,VALID,-0.0849042,VALID,18.6339,VALID,20,VALID,0.404978,
2003-10-12, 02:56:00,VALID,917.294,VALID,0,VALID,100,VALID,-0.101885,VALID,18.6567,VALID,20,VALID,0.250186,
2003-10-12, 02:57:00,VALID,917.29,VALID,0,VALID,100,VALID,-0.101885,VALID,18.6667,VALID,20,VALID,0,
2003-10-12, 02:58:00,VALID,917.281,VALID,0,VALID,100,VALID,-0.0849042,VALID,18.6793,VALID,20,VALID,0.0455078,
2003-10-12, 02:59:00,VALID,917.272,VALID,0.2,VALID,100,VALID,-0.0849042,VALID,18.6791,VALID,18,VALID,0.546875,
2003-10-12, 03:00:00,VALID,917.257,VALID,0,VALID,100,VALID,-0.101885,VALID,18.7054,VALID,23,VALID,0.730097,
2003-10-12, 03:01:00,VALID,917.265,VALID,0,VALID,100,VALID,-0.118866,VALID,18.7079,VALID,17,VALID,0.730208,
2003-10-12, 03:02:00,VALID,917.266,VALID,0,VALID,100,VALID,-0.101885,VALID,18.7181,VALID,21,VALID,0.485677,
2003-10-12, 03:03:00,VALID,917.274,VALID,0.2,VALID,100,VALID,-0.0849042,VALID,18.7435,VALID,22,VALID,0.142154,
2003-10-12, 03:04:00,VALID,917.289,VALID,0,VALID,100,VALID,-0.0169808,VALID,18.7494,VALID,22,VALID,0.0853659,
2003-10-12, 03:05:00,VALID,917.293,VALID,0,VALID,100,VALID,0,VALID,18.752,VALID,22,VALID,0.0201672,
2003-10-12, 03:06:00,VALID,917.296,VALID,0,VALID,100,VALID,0,VALID,18.7485,VALID,22,VALID,0.000363372,
2003-10-12, 03:07:00,VALID,917.302,VALID,0,VALID,100,VALID,0,VALID,18.746,VALID,22,VALID,0.392912,
2003-10-12, 03:08:00,VALID,917.299,VALID,0.2,VALID,100,VALID,0,VALID,18.7326,VALID,14,VALID,0.548692,
2003-10-12, 03:09:00,VALID,917.297,VALID,0,VALID,100,VALID,0,VALID,18.7522,VALID,9,VALID,0.510356,
2003-10-12, 03:10:00,VALID,917.292,VALID,0.2,VALID,100,VALID,0,VALID,18.7457,VALID,13,VALID,0.894192,
2003-10-12, 03:11:00,VALID,917.28,VALID,0.2,VALID,100,VALID,0,VALID,18.7298,VALID,18,VALID,1.13849,
2003-10-12, 03:12:00,VALID,917.271,VALID,0.2,VALID,100,VALID,0,VALID,18.7234,VALID,18,VALID,0.977471,
2003-10-12, 03:13:00,VALID,917.281,VALID,0,VALID,100,VALID,0,VALID,18.7097,VALID,11,VALID,0.875558,
2003-10-12, 03:14:00,VALID,917.276,VALID,0.2,VALID,100,VALID,-0.0339617,VALID,18.7075,VALID,16,VALID,0.785937,
2003-10-12, 03:15:00,VALID,917.268,VALID,0,VALID,100,VALID,0,VALID,18.6839,VALID,14,VALID,0.866815,
2003-10-12, 03:16:00,VALID,917.274,VALID,0,VALID,100,VALID,-0.0169808,VALID,18.6772,VALID,12,VALID,0.387386,
2003-10-12, 03:17:00,VALID,917.263,VALID,0,VALID,100,VALID,0,VALID,18.6911,VALID,18,VALID,1.32013,
2003-10-12, 03:18:00,VALID,917.269,VALID,0.2,VALID,100,VALID,-0.0169808,VALID,18.671,VALID,21,VALID,0.988567,
2003-10-12, 03:19:00,VALID,917.263,VALID,0,VALID,100,VALID,-0.0169808,VALID,18.6715,VALID,19,VALID,1.18209,
2003-10-12, 03:20:00,VALID,917.257,VALID,0,VALID,100,VALID,0,VALID,18.665,VALID,17,VALID,0.816883,
2003-10-12, 03:21:00,VALID,917.25,VALID,0,VALID,100,VALID,0.0169808,VALID,18.6583,VALID,20,VALID,0.888207,
2003-10-12, 03:22:00,VALID,917.232,VALID,0,VALID,100,VALID,0.0169808,VALID,18.6717,VALID,22,VALID,1.32533,
2003-10-12, 03:23:00,VALID,917.229,VALID,0.2,VALID,100,VALID,0,VALID,18.6613,VALID,22,VALID,1.34219,
2003-10-12, 03:24:00,VALID,917.217,VALID,0,VALID,100,VALID,0,VALID,18.6812,VALID,22,VALID,1.08612,
2003-10-12, 03:25:00,VALID,917.202,VALID,0,VALID,100,VALID,0,VALID,18.6682,VALID,22,VALID,0.772135,
2003-10-12, 03:26:00,VALID,917.188,VALID,0,VALID,100,VALID,0.0169808,VALID,18.6749,VALID,10,VALID,1.25729,
2003-10-12, 03:27:00,VALID,917.187,VALID,0,VALID,100,VALID,0,VALID,18.6355,VALID,359,VALID,0.877539,
2003-10-12, 03:28:00,VALID,917.197,VALID,0,VALID,100,VALID,0,VALID,18.6198,VALID,352,VALID,0.984184,
2003-10-12, 03:29:00,VALID,917.195,VALID,0.2,VALID,100,VALID,0.0169808,VALID,18.5905,VALID,335,VALID,0.747582,
2003-10-12, 03:30:00,VALID,917.19,VALID,0,VALID,100,VALID,0,VALID,18.5877,VALID,8,VALID,0.82984,
2003-10-12, 03:31:00,VALID,917.196,VALID,0.2,VALID,100,VALID,-0.0169808,VALID,18.5903,VALID,12,VALID,0.999306,
2003-10-12, 03:32:00,VALID,917.17,VALID,0.2,VALID,100,VALID,0.0169808,VALID,18.5771,VALID,5,VALID,1.57401,
2003-10-12, 03:33:00,VALID,917.17,VALID,0.2,VALID,100,VALID,0,VALID,18.5778,VALID,357,VALID,1.09414,
2003-10-12, 03:34:00,VALID,917.176,VALID,0,VALID,100,VALID,-0.0169808,VALID,18.5649,VALID,11,VALID,1.23895,
2003-10-12, 03:35:00,VALID,917.185,VALID,0,VALID,100,VALID,0.0169808,VALID,18.5686,VALID,20,VALID,1.21094,
2003-10-12, 03:36:00,VALID,917.191,VALID,0.2,VALID,100,VALID,0,VALID,18.5781,VALID,9,VALID,0.655523,
2003-10-12, 03:37:00,VALID,917.199,VALID,0,VALID,100,VALID,0.0169808,VALID,18.5808,VALID,12,VALID,0.661204,
2003-10-12, 03:38:00,VALID,917.179,VALID,0,VALID,100,VALID,-0.0169808,VALID,18.5905,VALID,7,VALID,1.24063,
2003-10-12, 03:39:00,VALID,917.178,VALID,0.2,VALID,100,VALID,0,VALID,18.552,VALID,360,VALID,1.39353,
2003-10-12, 03:40:00,VALID,917.188,VALID,0,VALID,100,VALID,0,VALID,18.5488,VALID,17,VALID,0.92133,
2003-10-12, 03:41:00,VALID,917.19,VALID,0.2,VALID,100,VALID,0,VALID,18.5423,VALID,347,VALID,0.528711,